|
NORAD ID: 37770 Int'l Code: 2011-039F
Perigee: 659.3 km
Apogee: 811.7 km
Inclination: 97.9 °
Period: 99.4 minutes
Semi major axis: 7106 km
Launch date: July 29, 2011
Source: People's Republic of China (PRC)
Note: This is SATELLITE DEBRIS
Two Line Element Set (TLE):
1 37770U 11039F 13141.15704333 .00002121 00000-0 52908-3 0 3700
2 37770 097.8979 234.1810 0107221 346.9267 075.4729 14.49166535 95691
Source:
NASA's NSSDC Master Catalog entry for CZ-2C DEB
|